Flag Weather past 2 weeks in Valencia, Venezuela

Now
77 °F

Passing clouds.


Feels Like: 78 °F
Forecast: 66 / 91 °F
Wind: 2 mph from Northeast

Location: Valencia Airport

Current Time: Oct 30, 2014 at 11:54:28 PM

Latest Report: Oct 30, 2014 at 9:30 PM


Visibility: N/A

Pressure: 29.89 "Hg

Humidity: 83%

Dew point: 72 °F

Location of ValenciaLocation

Historic Weather in Valencia — Graph

°F

Valencia temperature yesterday

Maximum temperature yesterday: 86 °F (at 12:30 PM)
Minimum temperature yesterday: 70 °F (at 5:30 AM)
Average temperature yesterday: 78 °F

Past Weeks' High & Low Weather Summary

 TemperatureHumidityPressure
High90 °F (Oct 17, 1:30 PM)100% (Oct 16, 1:30 AM)30.04 "Hg (Oct 16, 1:30 AM)
Low66 °F (Oct 27, 3:30 PM)52% (Oct 20, 12:30 PM)29.80 "Hg (Oct 23, 2:30 PM)
Average78 °F80%29.93 "Hg
* Reported Oct 15 9:30 PM — Oct 30 9:30 PM, Valencia, Weather by CustomWeather, © 2014

Note: Actual official high and low records may vary slightly from our data, if they occured in-between our weather recording intervals... More about our weather records

Advertising

Valencia weather history for previous 24 hours

 ConditionsComfort  
Time TempWeatherWind HumidityBarometerVisibility
9:30 PM
Oct 30
77 °FPassing clouds.2 mph83%29.89 "HgN/A
8:30 PM75 °FPassing clouds.No wind94%29.86 "HgN/A
7:30 PM75 °FPassing clouds.No wind89%29.83 "HgN/A
6:30 PM75 °FPassing clouds.3 mph89%29.80 "HgN/A
5:30 PM79 °FPassing clouds.3 mph79%29.80 "HgN/A
4:30 PM79 °FPassing clouds.7 mph79%29.80 "HgN/A
3:30 PM82 °FPassing clouds.5 mph70%29.80 "HgN/A
2:30 PM81 °FPassing clouds.10 mph70%29.83 "HgN/A
1:30 PM84 °FPassing clouds.8 mph66%29.83 "HgN/A
11:30 AM86 °FScattered clouds.3 mph62%29.89 "HgN/A
10:30 AM84 °FScattered clouds.3 mph62%29.92 "HgN/A
9:30 AM82 °FScattered clouds.5 mph70%29.92 "HgN/A
8:30 AM79 °FSunny.7 mph79%29.89 "Hg10 mi
7:30 AM75 °FSunny.No wind89%29.89 "Hg10 mi
6:30 AM72 °FPartly sunny.No wind94%29.89 "HgN/A
5:30 AM72 °FPartly sunny.3 mph88%29.86 "HgN/A
Weather by CustomWeather, © 2014

See weather overviewHow to use our weather pages